Lapse_Rate
7.5 7.5 7.6 7.5 7.5 7.8 7.9 8.0 8.0 7.9 7.9 7.9 7.6 7.3 7.2 6.9 6.6 5.5 6.1 6.9 5.2 4.6 6.0 6.7 7.4 6.4 5.7 5.2 6.5 4.8 5.9 5.6 6.1 6.5 6.5 6.5 6.5 6.5 6.5 6.5 6.5 6.5 6.5 6.5 6.5 6.5 6.5 6.9 6.7 6.5 6.7 7.1 7.2 7.2
7.6 7.4 7.3 7.3 7.2 7.7 7.7 7.7 7.8 7.8 7.6 7.8 7.6 7.4 7.2 7.0 6.6 6.8 6.4 7.5 7.0 5.5 6.0 6.5 6.1 6.8 7.4 7.4 5.7 5.1 5.5 5.5 4.5 6.5 6.5 6.5 6.5 6.5 6.5 6.5 6.5 6.5 6.5 6.5 6.5 6.5 6.7 6.9 6.8 6.8 7.2 7.0 7.2 7.3
7.7 7.7 7.4 7.3 7.4 7.8 7.5 7.8 7.5 7.8 7.7 7.7 7.7 7.6 7.4 7.3 7.1 6.8 5.4 5.8 6.0 4.3 4.3 5.2 5.5 6.2 7.4 7.3 7.1 5.2 5.7 6.9 5.9 5.0 3.7 6.4 6.5 6.5 6.5 6.5 6.5 6.5 6.7 6.5 6.5 6.5 6.6 7.0 6.9 6.8 6.8 6.9 7.1 7.2
7.6 7.5 7.2 6.9 6.7 7.8 7.7 7.6 7.6 7.8 7.8 7.7 7.8 7.5 7.5 7.5 7.4 7.0 6.0 6.0 5.9 6.2 4.4 5.9 8.1 7.8 7.9 7.3 6.9 6.9 6.8 6.8 6.4 5.1 3.3 6.5 6.5 6.3 6.5 6.5 6.5 6.5 6.6 6.5 6.5 6.6 6.8 7.0 7.0 7.0 6.9 6.7 6.6 7.1
7.8 7.3 6.6 7.1 7.6 7.6 7.4 7.6 7.7 7.7 7.8 7.7 7.7 7.5 7.5 7.5 7.2 7.2 6.1 6.3 6.5 6.6 5.9 4.8 5.9 6.8 7.4 7.3 7.8 7.2 6.8 6.3 4.9 4.4 5.8 6.5 5.4 6.4 5.9 6.5 6.5 6.7 6.5 6.5 6.5 6.8 6.7 7.0 6.8 6.5 6.7 6.9 7.0 7.3
7.6 7.6 7.3 7.1 7.9 7.7 7.5 7.5 7.9 7.9 7.9 7.6 7.8 7.7 7.5 7.2 7.0 4.8 3.4 5.0 6.7 6.2 4.3 6.4 5.1 7.5 7.7 7.1 7.5 6.9 6.1 5.6 5.0 4.4 4.2 5.3 6.0 5.5 6.5 6.5 6.7 7.2 7.2 6.6 6.5 6.8 6.5 6.6 6.8 6.8 7.0 6.9 6.7 6.8
7.3 7.4 7.8 7.7 7.8 7.7 7.6 7.8 8.0 7.9 7.7 7.7 7.6 7.7 7.6 7.6 6.4 6.5 6.4 5.9 6.6 6.5 4.9 5.7 5.9 6.5 7.3 7.1 5.8 5.7 6.6 5.8 5.6 5.1 5.1 5.4 5.3 6.2 6.5 6.5 6.7 7.1 7.0 6.6 6.5 6.7 6.8 6.7 6.7 7.6 7.8 8.2 8.5 8.5
7.5 7.3 7.1 6.8 7.1 7.6 7.5 7.7 8.0 7.9 8.0 7.8 7.7 7.6 7.8 7.9 7.5 6.2 5.7 6.8 6.2 4.9 6.5 6.5 6.5 4.6 7.3 5.0 4.8 4.6 5.8 5.6 5.2 4.9 4.8 5.8 5.1 5.2 6.5 6.6 6.9 7.3 6.8 6.8 6.9 6.3 6.5 6.7 6.9 7.1 8.1 8.1 7.4 7.1
7.5 7.3 7.0 7.0 7.3 7.7 7.5 7.6 7.9 7.8 7.8 7.9 7.8 7.7 6.6 6.5 6.6 7.1 6.9 5.6 5.8 5.7 6.5 5.3 6.5 6.5 5.6 5.5 4.8 5.1 5.6 6.3 5.0 6.5 6.2 5.8 6.5 6.5 6.5 6.6 6.8 7.2 6.2 6.6 6.5 7.4 7.9 7.6 7.3 7.1 7.8 7.8 7.1 7.4
7.8 7.4 7.2 7.1 7.7 7.7 7.5 7.7 7.8 7.7 7.8 7.9 7.0 6.1 6.2 5.9 6.5 6.1 5.9 6.0 6.6 6.2 6.7 6.5 5.5 6.5 5.2 2.7 3.4 3.8 3.5 6.5 6.5 6.3 4.7 6.5 6.5 6.9 7.3 7.2 7.5 7.2 6.6 7.0 6.9 6.6 7.1 7.0 6.1 5.5 5.9 7.1 6.8 6.2
7.8 7.7 7.3 6.3 7.7 7.6 7.6 7.8 7.7 7.9 7.9 5.9 5.4 6.2 6.8 7.3 6.3 6.8 6.7 6.7 5.4 6.5 5.7 5.4 5.0 6.0 5.1 6.2 6.5 5.1 6.5 6.5 6.5 6.5 6.5 6.5 6.5 6.6 7.5 7.3 7.3 6.7 7.1 6.5 6.2 5.9 5.5 6.5 5.8 5.5 5.6 5.3 4.8 4.5
8.2 8.0 7.0 6.6 7.6 7.6 7.7 7.8 7.6 6.7 5.7 5.6 6.4 6.0 6.2 6.5 6.7 6.5 6.5 5.9 6.5 6.5 4.1 4.0 3.9 4.3 4.7 5.7 4.8 5.1 6.5 6.5 6.5 5.6 6.5 6.5 6.5 6.9 7.0 6.9 6.7 6.2 5.7 5.7 5.8 5.3 6.0 6.1 5.6 4.8 4.6 4.4 3.7 3.2
8.0 8.0 7.8 7.5 7.7 7.8 7.8 7.7 8.1 7.0 7.1 6.4 6.3 6.5 7.1 6.0 6.5 6.5 6.5 6.5 6.5 3.0 3.8 3.0 6.0 3.0 4.2 4.5 4.9 6.5 6.5 6.5 5.9 6.5 6.5 6.5 6.8 6.9 6.8 7.0 6.9 6.9 6.5 6.2 5.5 4.8 4.5 4.5 4.8 4.5 3.8 2.6 2.7 1.5
7.9 7.9 7.8 7.8 7.7 7.7 7.7 7.8 7.5 7.0 5.8 6.4 6.9 6.5 6.5 6.5 6.5 6.5 6.5 6.3 3.3 2.6 2.9 2.3 2.8 2.9 3.1 5.4 6.7 6.5 6.5 6.5 6.5 6.5 6.5 6.5 6.8 5.8 6.6 6.3 5.0 4.8 4.7 4.9 4.6 4.4 3.5 2.4 2.1 2.0 1.0 -0.2 -0.2 -1.3
7.9 7.9 7.9 7.7 7.7 7.8 7.9 7.7 7.0 5.9 5.5 6.6 6.5 6.5 6.5 5.3 5.7 5.4 5.7 5.7 5.2 5.9 3.1 3.4 3.9 4.1 6.4 6.5 6.5 6.5 6.5 6.5 6.5 6.5 6.5 6.6 5.2 4.0 3.8 4.1 3.5 3.6 3.4 3.7 3.2 3.5 3.4 2.7 2.7 1.7 -0.4 -1.0 -1.3 -2.2
8.1 8.0 8.1 7.7 7.6 7.7 7.7 7.7 7.0 6.8 6.2 6.2 6.0 6.6 5.2 6.0 6.3 6.8 6.8 6.8 5.4 5.4 4.9 6.3 6.5 6.5 6.5 6.5 6.5 6.5 6.5 6.5 6.5 6.5 6.6 6.0 5.1 4.5 4.2 4.4 4.5 5.3 4.4 4.0 3.5 3.3 2.6 2.1 1.3 0.1 -0.6 -0.8 -1.2 -0.9
8.7 7.7 7.8 7.5 7.6 6.9 6.6 6.4 6.7 5.4 6.6 6.6 5.7 5.0 6.4 5.7 6.5 5.7 6.7 5.8 5.2 6.5 6.5 6.5 6.5 6.5 6.5 6.5 6.5 6.5 6.5 6.5 6.6 6.6 6.2 5.3 5.0 4.6 4.6 5.6 5.0 5.1 5.3 5.1 4.2 4.0 2.2 2.0 2.4 3.6 3.5 2.9 3.5 3.5
7.5 7.1 7.5 7.8 7.4 7.4 6.7 6.4 6.1 6.4 6.6 6.2 5.9 6.0 6.0 5.9 6.2 5.5 4.9 4.5 5.8 6.2 5.8 6.5 6.0 6.5 6.5 6.5 6.5 6.5 6.5 6.3 5.9 5.7 5.2 4.5 4.5 4.8 5.5 5.2 6.2 6.7 6.8 5.9 4.2 3.5 3.8 4.1 5.6 6.3 6.0 6.0 5.9 5.4
7.1 7.2 7.5 6.8 6.5 5.9 6.0 6.2 6.2 6.5 6.4 6.2 5.6 5.6 6.1 6.3 5.5 5.4 5.1 4.9 5.3 6.4 5.2 4.7 6.5 6.5 6.5 6.2 6.5 6.5 6.4 5.8 5.6 5.5 5.3 4.1 4.7 6.3 6.7 7.0 7.0 7.0 5.3 4.9 6.0 6.0 5.8 6.3 5.8 5.9 6.3 6.6 5.1 5.5
7.6 6.8 6.2 7.0 5.9 5.8 6.6 6.4 7.5 6.6 6.4 5.7 6.3 6.2 6.1 6.1 5.8 6.3 6.3 5.9 6.1 6.0 5.3 6.4 6.5 6.4 6.3 6.0 5.1 5.3 6.1 5.3 5.0 6.4 6.8 6.8 6.1 6.7 7.0 7.2 7.2 5.9 5.9 6.8 6.0 6.6 5.8 5.7 5.7 5.2 4.0 3.8 2.9 2.4
7.5 7.1 7.4 7.3 6.2 6.2 6.8 5.9 6.1 6.0 5.6 6.5 6.1 6.3 6.1 6.6 6.5 6.4 6.3 6.1 6.1 5.4 5.9 5.9 5.8 5.3 5.1 5.5 5.7 5.6 5.1 4.9 4.8 4.6 6.3 6.7 7.0 7.2 6.2 6.4 6.2 5.7 5.2 4.0 4.0 3.6 3.2 5.1 4.7 4.4 1.5 0.9 1.2 2.0
7.0 7.7 6.6 6.4 6.0 6.5 6.6 6.2 5.9 6.0 6.0 6.1 6.5 6.8 6.4 6.5 6.4 6.0 6.2 6.2 5.6 5.5 5.5 4.0 3.4 5.4 6.3 5.9 6.0 6.4 5.2 6.4 6.2 5.7 5.8 6.3 6.7 5.8 6.6 5.3 5.3 5.7 5.6 4.8 5.2 4.2 4.1 3.5 3.0 2.5 1.0 2.1 3.1 2.8
8.2 8.2 6.5 5.8 6.4 6.4 6.1 5.5 6.4 6.5 6.5 6.6 6.6 6.4 6.3 6.0 6.1 6.1 5.0 5.1 5.0 3.6 3.7 4.1 4.5 6.6 6.0 6.0 6.0 6.6 6.5 6.2 6.0 5.9 6.0 5.6 4.9 5.8 4.8 4.6 6.0 5.4 4.4 4.3 4.9 3.6 1.4 1.6 0.7 0.7 0.9 1.5 2.2 2.3
6.7 6.0 6.0 6.2 6.5 6.4 5.5 6.1 6.2 5.9 6.3 6.5 6.5 6.5 6.4 6.3 6.3 4.7 6.5 5.1 4.2 3.9 5.5 5.3 5.5 5.8 6.4 6.7 5.0 5.0 6.3 5.9 5.5 4.8 5.8 6.0 6.0 5.4 5.3 5.3 4.7 4.1 4.0 4.9 4.4 2.8 1.8 0.1 1.4 2.2 2.7 3.8 2.1 1.7
6.2 5.7 6.3 6.5 6.7 6.6 6.5 6.5 6.3 6.5 6.5 6.5 6.5 6.5 6.4 5.1 6.5 6.5 6.5 5.6 6.0 6.3 5.1 5.9 6.2 5.7 3.8 3.7 4.3 5.4 5.7 6.1 5.8 5.3 3.6 5.1 4.6 5.2 5.7 4.9 3.6 3.3 2.8 1.2 1.7 1.7 2.2 2.9 1.9 1.3 1.8 0.7 1.5 1.3
6.5 6.5 6.5 6.3 6.4 6.3 6.5 6.5 6.5 6.5 6.5 6.5 6.5 5.5 4.7 6.5 6.5 6.5 6.3 5.3 4.7 6.0 5.6 6.5 6.6 6.4 6.3 6.2 5.4 5.5 5.3 5.8 5.9 5.3 5.3 5.5 4.9 3.9 3.4 3.1 1.7 1.5 1.7 0.2 0.2 0.4 1.4 2.2 1.0 1.1 0.7 1.4 2.5 1.9
6.5 6.5 6.0 5.5 5.8 6.0 6.3 5.7 5.4 6.3 6.5 6.5 6.5 6.5 6.5 6.5 6.5 5.9 4.6 4.1 5.4 3.3 5.1 6.0 5.4 6.3 5.7 5.2 4.0 3.8 3.8 5.0 4.5 3.6 3.2 3.3 2.6 1.9 2.1 2.6 4.0 1.5 0.3 0.2 -0.4 -1.5 -0.5 -0.7 -0.8 -0.3 0.3 -0.3 1.5 2.7
6.6 6.5 6.5 4.3 5.3 5.1 6.5 6.5 6.5 6.5 6.5 5.3 6.2 6.5 6.5 6.5 6.5 5.1 4.7 3.8 5.6 4.3 5.0 5.4 5.4 4.8 3.6 2.8 2.8 2.6 2.4 2.5 2.4 2.3 2.5 1.9 0.8 -0.3 -1.7 -1.5 -0.5 -0.1 -2.0 -1.6 -1.2 -0.4 -0.4 -1.8 -1.7 -1.4 -0.8 -0.2 -0.3 -0.3
5.7 6.0 5.5 6.4 6.2 4.9 6.0 6.2 5.7 4.6 4.1 4.1 6.5 6.5 5.0 4.7 5.0 4.3 3.5 4.8 4.6 4.3 4.2 3.8 3.7 3.3 3.1 3.4 3.5 3.0 2.5 1.9 2.0 1.6 0.9 -1.1 -1.5 -0.4 -2.3 -3.0 -3.0 -1.6 -1.7 -1.1 2.2 -0.1 -0.2 -1.4 -1.6 -1.1 0.4 0.2 0.4 2.7
6.1 6.1 5.3 4.6 6.5 6.5 5.4 4.4 5.6 4.4 3.5 3.1 3.4 4.9 4.7 4.4 2.9 3.0 4.2 5.0 4.6 4.5 3.5 3.8 3.8 3.9 3.7 3.8 4.4 4.1 2.7 1.5 1.2 2.0 2.8 1.2 0.1 -0.5 -1.2 -1.8 -1.7 -1.2 0.3 1.4 0.3 -0.5 1.4 -1.0 0.6 1.0 1.3 0.9 -0.1 -1.3
6.5 6.3 6.1 5.7 5.8 5.8 6.0 4.8 4.2 3.9 4.0 4.2 3.3 5.0 4.3 3.0 3.5 3.5 4.8 5.6 5.3 6.0 4.7 5.0 4.8 4.6 4.6 4.1 3.1 2.1 1.1 0.3 0.0 1.4 2.2 2.1 0.8 0.2 -0.2 -0.6 -1.1 0.1 0.3 0.1 0.5 -1.5 -1.9 -1.9 -1.9 -1.3 -0.9 -0.6 0.3 -0.6
6.3 6.7 5.7 6.5 5.9 6.0 5.0 5.4 5.1 5.3 4.7 4.6 5.6 4.4 4.3 4.1 4.0 2.9 3.2 4.2 5.9 5.1 4.2 5.6 5.6 5.9 4.2 3.3 3.0 2.6 1.6 0.3 -0.0 0.7 0.1 0.2 0.2 -0.2 -0.0 1.2 1.7 1.1 -0.2 -0.2 -1.4 -2.0 -1.8 -1.8 -2.3 -1.8 -1.9 -2.1 -2.1 -2.3
6.3 6.3 6.4 5.8 5.1 5.9 5.6 5.7 5.8 5.8 5.6 5.8 6.0 4.3 4.1 5.3 4.9 3.3 2.1 2.7 3.1 6.4 6.0 4.4 3.7 3.3 2.8 2.1 1.0 -0.7 -1.2 -1.8 -0.8 0.4 0.3 0.6 1.3 1.5 1.6 1.8 2.2 -0.2 0.2 -0.8 -1.9 -2.4 -1.9 -1.3 -2.3 -2.4 -2.5 -3.3 -3.7 -4.0
Wind_Speed
17 19 24 23 20 18 16 14 12 12 11 11 10 7 4 6 8 4 3 7 3 1 4 6 5 3 3 4 2 4 4 5 4 4 3 3 2 3 4 2 6 3 2 3 4 4 1 21 9 7 5 10 11 11
14 19 24 22 22 17 15 13 11 13 13 13 11 8 5 5 5 6 2 4 4 3 2 3 5 4 2 3 2 4 2 2 1 3 3 2 2 3 8 2 6 3 4 2 5 3 6 8 10 10 11 10 10 10
14 20 24 22 17 16 14 13 15 14 14 11 12 9 6 4 4 5 1 3 2 2 3 0 5 6 5 4 3 3 2 2 2 4 3 2 2 3 3 3 4 10 14 3 4 5 10 10 9 11 10 11 11 11
15 22 23 24 20 14 15 15 15 15 15 15 13 10 7 5 5 3 1 3 2 1 2 3 3 2 5 5 6 5 2 1 2 0 1 2 1 2 3 2 3 3 6 6 5 8 8 10 10 8 8 10 12 11
18 23 19 22 19 17 16 17 15 15 16 14 14 12 8 6 5 0 3 2 3 1 1 3 7 6 6 6 6 6 3 3 1 3 1 2 3 2 2 2 3 5 4 3 3 6 5 4 6 7 10 10 10 10
14 22 24 19 20 19 18 17 14 14 14 17 14 11 9 6 3 3 4 3 7 2 2 2 4 2 4 7 5 5 4 2 2 2 3 3 4 2 1 3 4 4 5 7 3 6 8 7 7 9 10 10 10 10
12 18 21 21 21 20 18 18 17 15 17 18 15 12 9 5 1 2 2 2 5 2 2 3 3 2 4 4 2 2 2 2 3 2 2 3 3 3 1 2 7 4 4 5 4 5 7 6 4 6 7 10 14 13
16 16 18 17 13 19 18 18 17 18 19 17 15 12 8 4 3 2 2 3 7 3 1 1 3 1 2 1 0 3 2 2 1 3 3 3 3 2 3 6 6 5 5 6 5 5 5 5 7 7 7 11 13 12
15 16 15 19 22 20 19 17 19 22 20 18 15 12 3 1 1 2 9 9 7 2 1 2 2 3 2 0 2 1 3 1 3 3 3 2 1 3 4 8 4 1 2 4 3 5 5 8 12 13 13 13 11 10
14 16 15 18 22 22 20 18 19 23 22 19 5 2 2 3 18 13 2 1 1 1 2 3 2 2 3 1 2 1 2 3 2 5 1 2 3 7 8 7 5 4 2 4 5 5 4 9 11 12 12 9 10 10
14 18 21 21 20 23 21 20 24 25 17 2 3 2 1 18 2 2 2 2 2 3 4 4 5 3 1 2 3 3 2 2 2 3 3 2 3 3 8 8 8 10 10 10 10 9 10 9 10 10 9 10 9 9
16 23 24 24 22 23 22 24 27 7 3 5 3 3 2 2 2 4 4 2 4 4 3 3 3 5 2 2 2 3 2 1 3 1 2 1 3 8 8 9 8 8 10 11 10 11 11 11 10 10 9 9 9 7
18 23 26 27 25 23 22 26 18 21 12 3 0 3 3 4 5 5 5 3 1 2 1 1 2 3 2 2 1 2 2 3 0 1 2 2 7 7 8 8 9 9 10 12 11 10 11 11 10 9 8 6 6 6
20 25 23 25 23 22 23 26 19 10 3 1 3 4 3 2 4 3 1 2 3 3 3 3 2 3 0 2 0 2 3 2 3 2 2 3 7 7 7 8 9 7 8 9 8 8 8 8 7 6 6 5 6 5
23 26 25 22 23 24 24 22 13 4 2 2 3 4 4 2 3 2 1 1 2 2 2 2 2 2 1 1 3 2 2 3 3 2 2 5 8 8 7 7 7 7 6 6 4 5 6 5 7 6 4 4 5 4
25 22 7 24 26 24 25 17 4 2 1 3 1 2 1 2 3 2 1 2 1 1 2 2 1 2 4 3 2 4 2 3 1 2 4 7 7 7 6 6 5 6 6 5 4 4 4 5 6 5 4 4 4 4
15 2 24 27 28 25 19 4 1 3 3 2 1 1 1 0 1 2 4 1 2 2 2 2 4 6 1 1 2 3 2 2 5 5 5 7 8 7 6 6 6 6 5 5 4 4 4 4 5 5 5 5 6 5
4 18 27 28 23 7 2 0 2 3 3 1 1 2 2 1 1 1 1 1 2 1 1 1 2 1 3 1 2 2 3 4 5 6 6 7 6 6 5 6 5 6 6 5 5 4 4 4 6 4 6 6 6 7
14 21 30 29 10 5 4 3 2 2 2 1 2 2 2 1 0 1 1 1 1 3 2 2 1 1 2 2 3 5 5 4 5 4 5 4 6 6 6 6 6 5 6 6 6 4 4 4 1 2 2 1 1 1
27 31 29 24 6 1 3 2 2 3 3 2 1 2 1 1 1 1 1 1 2 1 1 2 1 1 1 1 2 5 6 8 8 7 6 5 4 6 6 6 5 5 4 4 3 2 2 1 2 3 3 2 3 2
15 12 16 7 3 3 2 3 2 2 2 2 2 3 1 1 2 2 2 2 0 2 1 2 3 1 2 3 5 7 8 7 7 4 7 7 5 5 4 3 5 3 3 2 3 2 2 3 2 3 3 3 2 1
5 12 2 1 3 3 0 2 3 3 3 2 2 1 2 2 2 2 1 1 2 1 1 2 3 3 3 4 4 5 5 6 7 7 7 7 6 4 5 4 3 3 2 3 3 3 3 2 3 3 3 2 1 2
8 3 2 2 2 1 2 2 2 3 3 3 1 2 1 1 1 1 1 1 1 0 2 3 4 5 6 5 6 6 8 10 7 6 7 4 3 4 4 3 2 3 3 1 3 5 3 3 3 3 2 1 2 2
6 3 4 4 3 3 0 2 2 2 2 2 3 2 3 2 2 0 3 2 1 1 3 6 7 5 5 4 2 2 4 5 5 4 3 5 5 3 4 4 5 4 3 3 4 4 3 3 3 1 0 1 2 2
4 4 2 3 3 4 5 3 3 3 3 3 2 2 2 2 2 3 2 2 3 3 3 4 5 4 3 2 2 3 3 5 5 5 1 4 4 3 5 5 4 3 2 3 1 2 2 3 2 2 3 2 3 3
4 3 3 6 4 3 5 4 5 5 3 4 2 2 2 2 2 4 1 2 2 3 4 5 5 5 3 5 5 3 2 4 6 5 3 3 3 5 5 5 3 2 2 3 4 4 4 3 3 4 3 2 1 1
5 4 2 1 2 2 2 1 2 2 3 4 3 3 2 3 4 1 1 2 1 2 2 2 3 3 6 6 6 5 5 5 7 7 5 7 7 6 4 4 7 2 3 5 5 4 4 3 3 3 2 3 3 3
2 2 5 3 2 1 3 3 3 5 3 2 4 4 4 3 2 1 1 2 1 3 4 3 4 7 8 7 7 7 7 7 9 9 8 7 6 5 5 4 5 8 5 4 4 5 4 4 4 4 3 2 2 2
2 1 3 4 2 1 2 4 3 1 2 1 3 2 2 2 1 1 1 2 2 5 7 7 7 7 8 7 6 5 5 5 6 6 6 3 2 1 1 3 3 3 3 3 5 5 5 4 3 3 1 1 3 2
2 1 3 3 4 4 2 2 2 1 2 1 3 2 2 1 1 1 2 1 2 3 3 5 6 7 7 8 7 6 5 3 2 4 6 5 4 4 4 4 3 3 3 4 3 2 5 3 3 1 2 3 3 3
2 1 3 3 2 2 3 3 2 2 1 2 2 1 2 2 1 1 2 2 2 6 6 6 5 5 7 7 6 6 3 3 4 7 9 8 6 5 4 4 3 4 3 4 5 3 3 3 3 4 5 5 5 4
1 2 2 3 2 2 2 1 3 2 2 2 2 2 2 2 2 2 1 2 3 6 6 6 7 5 5 5 4 4 8 4 4 6 9 7 6 5 7 8 10 7 4 4 4 3 3 4 4 4 4 5 5 5
2 2 3 3 2 2 2 1 3 2 2 3 3 4 4 3 4 2 2 1 0 1 6 8 8 8 9 9 9 7 8 7 14 16 15 14 13 11 10 10 8 4 5 4 4 4 5 5 4 5 5 5 5 5
Wind_Direction
175 175 173 168 165 171 170 173 172 166 162 157 144 141 103 71 44 30 325 38 74 40 16 26 9 35 15 44 80 303 38 347 16 21 1 321 348 299 295 309 338 112 203 200 212 202 351 0 351 49 48 57 67 68
180 168 166 167 168 178 169 166 171 168 163 160 150 146 130 88 57 28 21 31 15 57 265 338 288 279 5 54 79 341 208 50 200 49 16 329 317 293 312 346 8 35 5 53 40 65 47 36 46 35 50 63 71 87
186 178 167 162 169 167 159 163 161 166 164 161 160 156 152 128 95 77 323 311 20 58 315 34 245 212 198 185 167 112 42 58 43 180 183 253 292 343 317 3 335 355 5 60 108 65 53 32 55 46 44 70 70 71
176 153 153 154 168 182 166 161 160 156 158 150 153 154 159 127 132 168 27 325 12 306 107 300 27 156 154 151 165 173 216 273 235 115 176 214 229 279 285 347 41 338 347 342 90 109 108 54 37 53 75 75 69 70
162 151 154 168 181 160 151 149 151 153 153 147 147 146 144 120 109 88 21 350 357 48 347 288 313 256 164 169 186 178 175 217 41 3 36 252 256 20 277 90 40 356 353 22 62 7 101 54 60 61 58 68 89 91
150 167 163 175 163 153 149 147 153 157 158 149 148 144 132 126 130 60 20 6 338 50 65 342 310 288 147 162 180 186 189 110 100 128 247 254 254 136 297 94 84 31 41 29 69 73 91 99 77 93 90 84 76 87
132 149 166 167 165 153 151 152 160 162 158 148 146 137 129 138 75 98 77 290 353 65 64 312 299 291 200 179 170 63 82 158 139 231 238 227 273 114 285 79 120 85 64 54 30 132 97 38 96 99 99 103 98 81
143 143 146 145 168 156 158 159 162 159 150 141 137 125 124 119 87 93 175 116 65 78 63 286 272 358 138 186 188 139 137 90 273 226 280 249 298 203 97 121 134 132 110 80 72 70 101 170 161 177 150 95 84 81
159 160 163 175 169 161 157 162 162 149 142 133 127 123 89 20 96 76 105 73 43 94 265 204 201 246 326 234 129 309 139 147 224 205 244 146 283 60 110 127 103 57 32 123 102 96 86 73 68 57 69 81 90 88
164 166 166 167 166 157 153 152 151 144 134 133 116 103 159 207 119 116 112 85 106 178 229 241 249 268 143 154 257 143 167 219 217 226 177 117 79 101 95 96 119 125 88 43 160 61 89 93 84 76 72 80 88 88
173 166 163 156 154 153 154 150 143 133 133 82 132 161 92 145 150 186 162 208 183 217 210 225 199 193 268 122 210 211 207 244 258 260 133 207 115 119 108 88 63 60 65 77 81 77 56 85 105 102 89 80 76 75
175 167 158 167 171 154 154 152 145 142 129 141 107 132 101 187 181 209 182 225 195 236 198 165 218 167 222 114 102 319 235 98 254 164 93 122 102 112 106 95 84 77 74 68 66 68 70 77 84 89 88 84 77 74
171 167 176 171 161 154 151 154 161 117 106 99 262 144 191 183 202 177 192 240 211 232 284 88 12 129 38 75 119 220 265 232 4 197 154 58 130 120 119 110 86 80 85 84 75 70 67 68 71 84 90 81 86 78
162 152 159 158 161 162 159 163 139 107 95 194 190 190 221 158 244 185 181 179 257 73 79 82 41 116 109 56 203 240 242 250 258 190 92 136 123 90 93 99 93 82 78 83 80 84 84 83 82 75 77 88 89 75
152 150 155 155 157 158 159 146 110 70 70 256 209 206 200 177 57 37 352 90 20 38 65 44 21 88 173 219 211 276 309 251 26 65 91 122 117 113 104 102 104 104 100 97 95 101 110 100 91 89 85 93 99 99
145 135 145 153 149 141 139 125 60 62 273 252 295 166 313 144 138 188 189 170 73 39 35 91 165 182 233 191 171 221 259 27 104 86 108 115 107 106 113 113 116 112 109 115 114 118 115 110 122 138 113 120 144 152
143 108 155 142 128 120 110 96 131 174 252 263 178 71 328 174 14 134 190 157 115 155 178 174 209 213 89 203 229 26 58 96 122 113 112 120 122 121 114 109 115 128 124 122 122 110 130 142 138 148 160 190 185 173
103 139 140 137 128 98 47 96 177 203 234 170 224 139 77 27 348 110 125 227 118 232 217 260 310 152 193 207 114 125 106 93 92 103 108 110 110 116 122 127 125 128 134 127 132 149 164 183 211 203 171 187 184 186
137 140 142 142 141 129 155 184 213 209 70 98 92 61 58 281 239 298 33 355 316 260 306 306 236 250 86 58 111 126 134 126 124 112 118 113 123 137 138 132 134 135 138 161 176 191 195 172 147 101 89 60 359 82
144 147 148 152 97 169 151 181 209 161 174 174 117 141 196 123 97 36 308 286 238 291 271 232 82 70 64 348 119 135 127 129 127 130 139 136 128 132 145 154 158 158 173 172 137 129 143 167 81 95 77 70 78 44
117 143 134 108 353 285 232 184 154 91 123 144 124 142 128 127 193 200 214 230 131 222 182 79 104 94 30 66 104 120 136 144 152 151 149 147 157 159 173 170 152 165 163 172 158 182 152 126 120 102 92 98 84 68
110 120 99 105 209 272 105 284 134 161 96 122 121 209 166 201 180 202 208 170 243 83 83 127 143 129 121 118 124 128 150 130 121 124 126 141 164 168 171 168 160 177 159 170 136 150 101 92 73 61 91 133 281 294
126 151 129 130 185 191 251 10 106 143 141 177 168 173 168 152 122 61 251 193 80 255 144 131 132 119 110 101 101 100 120 128 131 135 144 157 147 130 130 120 128 130 135 52 107 109 127 121 85 74 52 7 29 353
73 143 183 197 191 135 254 186 203 167 125 180 194 202 148 137 143 301 255 132 146 112 92 113 121 118 108 108 96 123 121 119 124 113 123 117 118 112 117 107 91 72 82 89 101 123 116 137 157 116 152 221 342 29
169 189 205 166 170 152 162 175 193 147 192 210 154 158 149 122 187 232 234 130 149 143 138 140 139 142 141 163 113 103 112 128 122 126 133 119 118 97 89 82 79 73 58 88 80 134 175 124 98 69 57 70 88 73
188 165 221 169 175 181 168 165 186 193 154 177 149 91 150 175 228 237 76 138 146 154 170 168 164 162 161 138 131 133 153 117 109 97 53 78 111 139 146 139 121 352 32 88 88 68 62 105 105 89 31 50 132 92
158 169 192 313 282 84 66 26 97 141 171 189 142 139 156 221 233 149 115 354 9 148 119 110 135 141 137 110 84 69 54 79 95 103 97 74 64 48 75 127 121 156 73 75 74 84 96 75 81 78 39 18 68 88
54 116 157 225 95 352 168 154 157 195 184 155 137 177 206 219 191 44 59 304 352 78 71 61 84 105 108 113 112 105 90 96 94 93 84 69 66 66 64 71 79 87 79 71 77 67 62 84 78 71 66 51 343 355
144 189 96 138 130 178 223 192 186 74 327 53 183 148 146 66 23 75 329 8 33 97 102 99 92 100 97 97 94 100 116 122 123 123 117 130 95 1 129 98 104 111 104 96 92 107 95 102 119 129 110 257 280 359
147 140 116 142 155 195 85 29 73 39 30 72 119 104 85 67 267 318 8 11 106 112 112 118 127 127 131 132 133 99 48 41 91 149 155 162 165 152 121 111 88 57 93 118 132 52 21 41 333 54 23 17 39 23
109 189 151 148 135 62 89 89 41 43 32 61 35 59 113 146 326 349 325 254 205 133 132 140 137 143 141 138 137 122 94 353 51 78 96 108 109 104 102 103 113 94 79 81 88 76 52 30 34 48 42 43 39 41
195 224 146 123 116 115 117 187 168 192 165 162 200 106 116 121 184 239 279 346 123 138 151 151 149 138 104 90 82 91 109 118 96 99 95 101 102 98 98 91 92 96 93 92 89 91 75 66 61 49 34 46 42 35
36 28 68 107 116 180 202 195 181 194 169 209 191 160 170 185 180 201 311 50 158 197 126 107 107 104 102 102 101 92 85 84 87 92 91 99 115 116 106 103 102 85 82 91 87 96 85 74 57 54 62 52 37 24